Weather Roundup
Issued by NWS Springfield, MO

Home | Current Version | Previous Version | Text Only | Print | Product List | Glossary On
Versions: 1 2 3 4 5 6 7 8 9 10 11 12 13 14 15 16 17 18 19 20 21 22 23 24 25 26 27 28 29 30 31 32 33 34 35 36 37 38 39 40 41 42 43 44 45 46 47 48 49 50
000
NZUS99 KSGF 280607
HRRSGF

HOURLY WEATHER
NATIONAL WEATHER SERVICE SPRINGFIELD MO
100 AM CDT THU JUL 28 2016

......SGF CWA......

CITY           SKY/WX    TMP DP  RH WIND       PRES   REMARKS
SPRINGFIELD    PTCLDY    74  70  87 CALM      29.97S
6HR MIN TEMP:  73; 6HR MAX TEMP:  82;

JOPLIN         CLOUDY    73  71  93 CALM      29.97R
6HR MIN TEMP:  72; 6HR MAX TEMP:  83;

WEST PLAINS    CLOUDY    72  69  90 NW3       29.99S
6HR MIN TEMP:  72; 6HR MAX TEMP:  74; 6HR PCP: TRACE;

ROLLA          PTCLDY    72  68  87 SW8       29.95S
6HR MIN TEMP:  72; 6HR MAX TEMP:  86;

OSAGE BEACH    PTCLDY    74  71  91 S3        29.96S
BRANSON        CLOUDY    73  72  94 CALM      29.99S

......SURROUNDING SGF CWA......

CITY           SKY/WX    TMP DP  RH WIND       PRES   REMARKS
CHANUTE        PTCLDY    77  74  90 S3        29.97R
PARSONS        PTCLDY    76  73  91 CALM      29.98R
COFFEYVILLE    CLOUDY    77  74  90 CALM      29.95S
EMPORIA        CLEAR     76  74  93 CALM      29.98S
GROVE OK       PTCLDY    72  72 100 CALM      29.96F
ROGERS AR      PTCLDY    70  69  97 CALM      30.00R
SILOAM SPRINGS CLEAR     70  63  78 SE5       29.99S
HARRISON AR    PTCLDY    73  71  93 N3        29.99R
NEAR YELLVILLE MOCLDY    73  70  88 CALM      29.93S

......KANSAS AND MISSOURI......

CITY           SKY/WX    TMP DP  RH WIND       PRES   REMARKS
KANSAS CTY INT PTCLDY    76  71  85 CALM      29.96S
DOWNTOWN KC    CLEAR     80  70  71 E3        29.94S
COLUMBIA       CLEAR     75  73  93 SE7       29.94S
SEDALIA        CLEAR     77  73  87 NW3       29.95F
ST JOSEPH      PTCLDY    73  71  93 CALM      29.95S
ST LOUIS       CLOUDY    78  69  73 E5        29.92F THUNDER
SPIRIT OF STL  PTCLDY    75  74  96 W3        29.91S
KIRKSVILLE     CLEAR     70  68  93 CALM      29.95F
WICHITA        PTCLDY    78  72  81 SE3       29.98F
TOPEKA         CLEAR     74  71  91 CALM      29.96F
OLATHE           N/A     75  71  87 MISG      29.96F

......TENNESSEE......

CITY           SKY/WX    TMP DP  RH WIND       PRES   REMARKS
MEMPHIS        LGT RAIN  78  74  87 SW5       29.92R
NASHVILLE      CLOUDY    81  71  71 S5        29.96S

......ARKANSAS.......

CITY           SKY/WX    TMP DP  RH WIND       PRES   REMARKS
FAYETTEVILLE   PTCLDY    71  71 100 CALM      29.99R
FT SMITH       CLEAR     78  72  81 CALM      29.93S
LITTLE ROCK    MOCLDY    78  73  84 SW3       29.94R

......OKLAHOMA.......

CITY           SKY/WX    TMP DP  RH WIND       PRES   REMARKS
TULSA          MOCLDY    81  75  82 S3        29.93F
PONCA CITY     CLEAR     74  69  85 CALM      29.97R
MCALESTER      MOCLDY    76  71  85 S3        29.96R
OKLAHOMA CITY  MOCLDY    75  72  90 SW3       29.97F

......IOWA............

CITY           SKY/WX    TMP DP  RH WIND       PRES   REMARKS
DES MOINES     PTCLDY    76  69  79 CALM      29.94F
QUAD CITIES    MOCLDY    74  68  81 CALM      29.91F

......ILLINOIS........

CITY           SKY/WX    TMP DP  RH WIND       PRES   REMARKS
QUINCY         CLOUDY    73  71  93 E7        29.92S
CHICAGO        PTCLDY    74  66  76 CALM      29.93F



USA.gov is the U.S. government's official web portal to all federal, state and local government web resources and services.